Location: Newark
(34.9500°N, 139.9667°E)
Time: 03:35:29
(UTC+00:00)

Altair - All Passes

Search period start: 14 December 2019 00:00
Search period end: 24 December 2019 00:00
Orbit: 1502 x 1682 km, 47.2° (Epoch: 12 December)

Date Brightness Start Highest point End Pass type
(mag) Time Alt. Az. Time Alt. Az. Time Alt. Az.
14 Dec - 07:20:33 10° SE 07:24:09 12° ESE 07:27:43 10° E daylight
14 Dec - 09:18:03 10° SSW 09:27:34 57° SE 09:36:45 10° ENE visible
14 Dec - 11:22:55 10° WSW 11:32:24 58° NNW 11:41:35 10° NE visible
14 Dec - 13:30:07 10° WNW 13:38:46 38° N 13:47:14 10° ENE visible
14 Dec - 15:36:04 10° NW 15:45:09 55° NNE 15:54:06 10° E night (unlit)
14 Dec - 17:41:00 10° WNW 17:49:56 58° SW 17:58:52 10° SSE visible
14 Dec - 19:49:57 10° W 19:53:12 12° WSW 19:56:28 10° SW visible
15 Dec - 06:57:24 10° SE 06:59:06 11° ESE 07:00:47 10° ESE daylight
15 Dec - 08:53:01 10° SSW 09:02:26 52° SE 09:11:32 10° ENE visible
15 Dec - 10:57:35 10° WSW 11:07:10 61° NNW 11:16:25 10° NE visible
15 Dec - 13:04:45 10° WNW 13:13:27 39° N 13:21:56 10° ENE visible
15 Dec - 15:10:52 10° NW 15:19:55 53° NNE 15:28:48 10° E night (unlit)
15 Dec - 17:15:47 10° WNW 17:24:50 64° SW 17:33:51 10° SE visible
15 Dec - 19:23:48 10° W 19:28:10 14° WSW 19:32:34 10° SSW visible
16 Dec - 08:28:00 10° SSW 08:37:19 48° SE 08:46:19 10° ENE visible
16 Dec - 10:32:16 10° WSW 10:41:56 64° NNW 10:51:16 10° NE visible
16 Dec - 12:39:23 10° WNW 12:48:08 39° N 12:56:40 10° ENE visible
16 Dec - 14:45:39 10° NW 14:54:40 50° NNE 15:03:30 10° E night (unlit)
16 Dec - 16:50:35 10° WNW 16:59:43 69° SW 17:08:48 10° SE visible
16 Dec - 18:57:57 10° W 19:03:09 17° SW 19:08:22 10° SSW visible
17 Dec - 08:03:02 10° SSW 08:12:12 44° SE 08:21:04 10° ENE visible
17 Dec - 10:06:57 10° WSW 10:16:42 68° NNW 10:26:07 10° NE visible
17 Dec - 12:14:00 10° WNW 12:22:50 40° N 12:31:24 10° ENE visible
17 Dec - 14:20:25 10° NW 14:29:25 48° NNE 14:38:13 10° E night (unlit)
17 Dec - 16:25:23 10° WNW 16:34:35 75° SW 16:43:44 10° SE visible
17 Dec - 18:32:16 10° W 18:38:07 19° SW 18:43:59 10° SSW visible
18 Dec - 07:38:06 10° SSW 07:47:05 40° SE 07:55:47 10° ENE visible
18 Dec - 09:41:39 10° WSW 09:51:29 72° NNW 10:00:58 10° NE visible
18 Dec - 11:48:37 10° WNW 11:57:31 40° N 12:06:09 10° ENE visible
18 Dec - 13:55:11 10° NW 14:04:09 46° NNE 14:12:54 10° E night (unlit)
18 Dec - 16:00:11 10° WNW 16:09:28 80° SW 16:18:38 10° SE night (unlit)
18 Dec - 18:06:40 10° W 18:13:05 21° SW 18:19:30 10° S visible
19 Dec - 07:13:12 10° SSW 07:21:59 36° SE 07:30:29 10° ENE daylight
19 Dec - 09:16:24 10° WSW 09:26:17 77° NNW 09:35:48 10° NE visible
19 Dec - 11:23:13 10° WNW 11:32:12 41° N 11:40:54 10° ENE visible
19 Dec - 13:29:55 10° NW 13:38:52 45° NNE 13:47:34 10° E visible
19 Dec - 15:35:00 10° NW 15:44:19 86° SW 15:53:30 10° SE night (unlit)
19 Dec - 17:41:10 10° WNW 17:48:02 24° SW 17:54:55 10° S visible
20 Dec - 06:48:21 10° S 06:56:53 33° SE 07:05:09 10° ENE daylight
20 Dec - 08:51:08 10° WSW 09:01:04 82° NNW 09:10:39 10° NE visible
20 Dec - 10:57:49 10° W 11:06:54 42° NNW 11:15:40 10° ENE visible
20 Dec - 13:04:40 10° WNW 13:13:35 43° NNE 13:22:15 10° E visible
20 Dec - 15:09:48 10° NW 15:19:10 88° NE 15:28:22 10° SE night (unlit)
20 Dec - 17:15:43 10° WNW 17:22:59 27° SW 17:30:15 10° S visible
21 Dec - 06:23:33 10° S 06:31:47 30° SE 06:39:47 10° ENE daylight
21 Dec - 08:25:54 10° SW 08:35:52 87° NW 08:45:29 10° NE visible
21 Dec - 10:32:25 10° W 10:41:35 44° NNW 10:50:27 10° ENE visible
21 Dec - 12:39:23 10° WNW 12:48:17 42° NNE 12:56:56 10° E visible
21 Dec - 14:44:37 10° NW 14:54:01 83° NE 15:03:12 10° ESE night (unlit)
21 Dec - 16:50:19 10° WNW 16:57:56 30° SW 17:05:31 10° S night (unlit)
22 Dec - 05:58:47 10° S 06:06:41 27° SE 06:14:23 10° ENE daylight
22 Dec - 08:00:40 10° SW 08:10:41 88° SE 08:20:19 10° NE visible
22 Dec - 10:07:01 10° W 10:16:17 45° NNW 10:25:14 10° NE visible
22 Dec - 12:14:05 10° WNW 12:22:59 41° N 12:31:37 10° ENE visible
22 Dec - 14:19:25 10° NW 14:28:50 78° NNE 14:38:01 10° ESE night (unlit)
22 Dec - 16:24:57 10° WNW 16:32:53 33° SW 16:40:46 10° S night (unlit)
23 Dec - 05:34:06 10° S 05:41:35 24° SE 05:48:56 10° ENE daylight
23 Dec - 07:35:29 10° SW 07:45:29 83° SE 07:55:09 10° NE daylight
23 Dec - 09:41:38 10° W 09:50:59 47° NNW 10:00:02 10° NE visible
23 Dec - 11:48:46 10° WNW 11:57:41 40° N 12:06:18 10° ENE visible
23 Dec - 13:54:13 10° NW 14:03:39 73° NNE 14:12:49 10° ESE night (unlit)
23 Dec - 15:59:37 10° WNW 16:07:49 37° SW 16:15:57 10° SSE night (unlit)
